TimeMDT,TemperatureF,Dew PointF,Humidity,Sea Level PressureIn,VisibilityMPH,Wind Direction,Wind SpeedMPH,Gust SpeedMPH,PrecipitationIn,Events,Conditions,WindDirDegrees,DateUTC
12:15 AM,57.2,55.4,94,29.83,10.0,NE,15.0,-,N/A,,Mostly Cloudy,50,2013-05-19 06:15:00
12:35 AM,57.2,53.6,88,29.83,10.0,NNE,11.5,-,N/A,,Overcast,30,2013-05-19 06:35:00
1:15 AM,57.2,53.6,88,29.82,10.0,NNE,9.2,-,N/A,,Overcast,30,2013-05-19 07:15:00
1:35 AM,57.2,53.6,88,29.82,10.0,NNE,10.4,-,N/A,,Overcast,30,2013-05-19 07:35:00
1:55 AM,57.2,53.6,88,29.82,10.0,NNE,10.4,-,N/A,,Overcast,20,2013-05-19 07:55:00
2:15 AM,57.2,53.6,88,29.83,8.0,NNE,10.4,-,N/A,,Overcast,20,2013-05-19 08:15:00
2:35 AM,57.2,53.6,88,29.83,10.0,North,11.5,-,N/A,,Overcast,10,2013-05-19 08:35:00
2:55 AM,57.2,53.6,88,29.84,10.0,NNE,12.7,-,N/A,,Overcast,20,2013-05-19 08:55:00
3:15 AM,57.2,53.6,88,29.84,9.0,North,10.4,-,N/A,,Overcast,10,2013-05-19 09:15:00
3:35 AM,57.2,53.6,88,29.84,9.0,NNE,11.5,-,N/A,,Overcast,20,2013-05-19 09:35:00
3:55 AM,55.4,53.6,94,29.83,3.0,NNE,13.8,-,N/A,,Overcast,20,2013-05-19 09:55:00
4:15 AM,55.4,53.6,94,29.83,7.0,NNE,11.5,-,N/A,,Overcast,30,2013-05-19 10:15:00
4:35 AM,55.4,51.8,88,29.83,10.0,NNE,16.1,-,N/A,,Overcast,30,2013-05-19 10:35:00
4:55 AM,55.4,51.8,88,29.84,10.0,NNE,12.7,17.3,N/A,,Overcast,30,2013-05-19 10:55:00
5:35 AM,55.4,51.8,88,29.84,10.0,NNE,16.1,21.9,N/A,,Overcast,20,2013-05-19 11:35:00
5:55 AM,55.4,51.8,88,29.83,7.0,NNE,17.3,24.2,N/A,,Overcast,30,2013-05-19 11:55:00
6:15 AM,55.4,51.8,88,29.83,7.0,NNE,15.0,21.9,N/A,,Overcast,20,2013-05-19 12:15:00
6:35 AM,53.6,51.8,94,29.84,5.0,NNE,18.4,25.3,N/A,,Overcast,30,2013-05-19 12:35:00
6:55 AM,53.6,51.8,94,29.84,10.0,NNE,15.0,-,N/A,,Overcast,20,2013-05-19 12:55:00
7:15 AM,53.6,51.8,94,29.85,10.0,NNE,16.1,20.7,N/A,,Overcast,20,2013-05-19 13:15:00
7:35 AM,53.6,50.0,88,29.85,8.0,NNE,16.1,-,N/A,,Overcast,20,2013-05-19 13:35:00
7:55 AM,53.6,50.0,88,29.86,8.0,NNE,16.1,20.7,N/A,,Overcast,20,2013-05-19 13:55:00
8:15 AM,53.6,50.0,88,29.86,8.0,NNE,18.4,23.0,N/A,,Overcast,20,2013-05-19 14:15:00
8:35 AM,53.6,50.0,88,29.86,9.0,NE,18.4,25.3,N/A,,Overcast,40,2013-05-19 14:35:00
8:55 AM,53.6,50.0,88,29.86,10.0,NNE,19.6,24.2,N/A,,Overcast,30,2013-05-19 14:55:00
9:15 AM,53.6,50.0,88,29.86,10.0,NNE,16.1,-,N/A,,Overcast,30,2013-05-19 15:15:00
9:35 AM,53.6,50.0,88,29.86,10.0,NNE,15.0,20.7,N/A,,Overcast,30,2013-05-19 15:35:00
9:55 AM,53.6,50.0,88,29.86,10.0,NNE,16.1,25.3,N/A,,Overcast,30,2013-05-19 15:55:00
10:15 AM,55.4,48.2,77,29.86,10.0,NNE,19.6,25.3,N/A,,Overcast,20,2013-05-19 16:15:00
10:55 AM,55.4,48.2,77,29.86,10.0,NNE,17.3,-,N/A,,Overcast,20,2013-05-19 16:55:00
11:15 AM,55.4,48.2,77,29.86,10.0,NNE,19.6,23.0,N/A,,Overcast,30,2013-05-19 17:15:00
11:35 AM,55.4,46.4,72,29.87,10.0,NNE,18.4,26.5,N/A,,Overcast,30,2013-05-19 17:35:00
11:55 AM,55.4,46.4,72,29.87,10.0,NNE,17.3,24.2,N/A,,Overcast,30,2013-05-19 17:55:00
12:15 PM,55.4,48.2,77,29.86,10.0,NNE,19.6,26.5,N/A,,Overcast,20,2013-05-19 18:15:00
12:35 PM,57.2,48.2,72,29.85,10.0,NNE,23.0,28.8,N/A,,Overcast,20,2013-05-19 18:35:00
12:55 PM,57.2,46.4,67,29.85,10.0,NNE,21.9,27.6,N/A,,Mostly Cloudy,20,2013-05-19 18:55:00
1:35 PM,59.0,46.4,63,29.85,10.0,NNE,20.7,29.9,N/A,,Scattered Clouds,20,2013-05-19 19:35:00
2:35 PM,57.2,46.4,67,29.85,10.0,NNE,23.0,27.6,N/A,,Mostly Cloudy,20,2013-05-19 20:35:00
2:55 PM,57.2,44.6,63,29.86,10.0,North,20.7,27.6,N/A,,Scattered Clouds,360,2013-05-19 20:55:00
3:15 PM,57.2,44.6,63,29.86,10.0,North,20.7,27.6,N/A,,Mostly Cloudy,10,2013-05-19 21:15:00
3:35 PM,57.2,46.4,67,29.86,10.0,North,19.6,24.2,N/A,,Scattered Clouds,360,2013-05-19 21:35:00
4:15 PM,57.2,44.6,63,29.86,10.0,North,17.3,23.0,N/A,,Overcast,10,2013-05-19 22:15:00
4:35 PM,57.2,42.8,59,29.86,10.0,North,18.4,28.8,N/A,,Overcast,10,2013-05-19 22:35:00
4:55 PM,57.2,44.6,63,29.86,10.0,North,20.7,32.2,N/A,,Mostly Cloudy,10,2013-05-19 22:55:00
5:15 PM,55.4,44.6,67,29.87,10.0,NNE,20.7,27.6,N/A,,Mostly Cloudy,20,2013-05-19 23:15:00
5:35 PM,53.6,46.4,77,29.87,10.0,NNE,16.1,21.9,N/A,,Overcast,20,2013-05-19 23:35:00
5:55 PM,53.6,46.4,77,29.88,10.0,North,21.9,26.5,N/A,,Mostly Cloudy,10,2013-05-19 23:55:00
6:15 PM,51.8,46.4,82,29.87,10.0,North,21.9,26.5,N/A,,Mostly Cloudy,360,2013-05-20 00:15:00
6:35 PM,51.8,48.2,88,29.87,10.0,North,21.9,26.5,0.01,,Overcast,360,2013-05-20 00:35:00
6:55 PM,51.8,48.2,88,29.87,10.0,North,20.7,31.1,0.01,,Mostly Cloudy,10,2013-05-20 00:55:00
7:15 PM,51.8,46.4,82,29.87,10.0,North,26.5,32.2,0.01,,Overcast,10,2013-05-20 01:15:00
7:35 PM,51.8,46.4,82,29.88,10.0,North,24.2,31.1,0.03,,Overcast,360,2013-05-20 01:35:00
7:55 PM,51.8,46.4,82,29.88,10.0,North,25.3,32.2,0.05,,Overcast,360,2013-05-20 01:55:00
8:15 PM,51.8,46.4,82,29.88,10.0,North,23.0,27.6,0.02,,Overcast,360,2013-05-20 02:15:00
8:35 PM,51.8,46.4,82,29.89,10.0,North,20.7,29.9,0.04,,Overcast,10,2013-05-20 02:35:00
8:55 PM,50.0,46.4,87,29.89,10.0,North,19.6,29.9,0.05,,Overcast,10,2013-05-20 02:55:00
9:15 PM,50.0,46.4,87,29.89,10.0,North,25.3,29.9,0.02,,Overcast,10,2013-05-20 03:15:00
9:35 PM,50.0,46.4,87,29.89,10.0,North,25.3,34.5,0.02,,Overcast,360,2013-05-20 03:35:00
9:55 PM,50.0,46.4,87,29.89,10.0,North,23.0,28.8,0.03,,Overcast,360,2013-05-20 03:55:00
10:15 PM,50.0,46.4,87,29.89,10.0,North,20.7,29.9,0.01,,Overcast,360,2013-05-20 04:15:00
10:35 PM,50.0,46.4,87,29.88,10.0,North,24.2,31.1,0.01,,Overcast,360,2013-05-20 04:35:00
10:56 PM,50.0,46.4,87,29.87,10.0,North,24.2,31.1,N/A,,Overcast,360,2013-05-20 04:56:00
11:15 PM,50.0,46.4,87,29.87,10.0,North,24.2,31.1,N/A,,Overcast,350,2013-05-20 05:15:00
11:55 PM,50.0,46.4,87,29.86,10.0,North,24.2,36.8,N/A,,Overcast,360,2013-05-20 05:55:00